Location: Milton
(43.5183°N, 79.8775°W)
Time: 09:04:40
(UTC+00:00)

UNISAT 6 - Pass Details

Date: 23 March 2023
Orbit: 599 x 680 km, 97.7° (Epoch: 02 June)

Event Time Altitude Azimuth Distance (km) Brightness Sun altitude
Rises 00:22:40 0° 355° (N) 3,026 ? -9.6°
Reaches altitude 10° 00:25:38 10° 335° (NNW) 2,118 ? -10.1°
Maximum altitude 00:28:26 16° 297° (WNW) 1,742 ? -10.6°
Drops below altitude 10° 00:31:16 10° 260° (W) 2,123 ? -11.1°
Sets 00:34:15 0° 239° (WSW) 3,036 ? -11.6°
